Погода в Мерсрагсе

Погода в Мерсрагсе : погода сейчас, прогноз погоды и архив. Всё, что Вы хотите узнать о погоде в Мерсрагсе!

Поиск расширенной информации на нашем сайте:

Другие новости

Новости СМИ2

Главная страница сайта

Новости сайта

03.07.2017

Напоминаем, что на нашем специализированном сайте Метеоцентр.Азия вы можете получить высокодетализированные автоматические прогнозы погоды по пунктам России, СНГ и мира в авиационном формате (включающие направление и скорость ветра, видимость, явления погоды, количество и форму облачности, нижнюю и верхнюю границу облачности).


Погода в Мерсрагсе - сегодня

Время (UTC), дата Ветер
(°,м/с) 
Видим.   Явления Облачность Т
(°С)
Тd
(°С)
f(%) Тe
(°С)
Pmin
(гПа)
dP
(гПа)
Po
(мм)
O2
(г/м3)
Тmin Tmax R s Состояние
почвы
00 17.10.17 200 (Ю) 1-2  н/о    н/о 
+7.5 +7.3 99 +8  1017  762  298           
03 17.10.17 210 (ЮЗ) 3-4  н/о    н/о 
+8.9 +8.8 99 +8  1017.3  762  296           
06 17.10.17 200 (Ю) 2-4  н/о    н/о 
+9.8 +9.8 100 +11  1018  0.8  763  295           
09 17.10.17 210 (ЮЗ) 4-7  н/о    н/о 
+12 +11 94 +13  1016.4  -1.5  762  292           
12 17.10.17 200 (Ю) 7-12  н/о    н/о 
+15 +11.3 79 +17  1012.7  -3.5  759  288           
15 17.10.17 210 (ЮЗ) 6-10  н/о    н/о 
+15.3 +12.6 84 +20  1009.8  -3  757  286           
18 17.10.17 230 (ЮЗ) 4-8  н/о    н/о 
+13.9 +10.5 80 +16  1009.3  756  288           
21 17.10.17 220 (ЮЗ) 4-7  н/о    н/о 
+13.1 +10.1 82 +14  1008.9  -0.4  756  289           
00 18.10.17 210 (ЮЗ) 4-7  н/о    н/о 
+12.4 +7.7 73 +12  1007.9  755  290           
03 18.10.17 220 (ЮЗ) 4-6  н/о    н/о 
+11.4 +8.2 81 +11  1006.4  754  290           
06 18.10.17 240 (ЮЗ) 5-8  н/о    н/о 
+12.2 +8.6 79 +11  1006.4  754  289           
09 18.10.17 240 (ЮЗ) 4-6  н/о    н/о 
+12.1 +10.4 89 +14  1007.8  755  290           
12 18.10.17 290 (З) 2-5  н/о    н/о 
+11.3 +9.4 88 +12  1010.2  757  291           
15 18.10.17 290 (З) 2-4  н/о    н/о 
+9.3 +4.9 74 +9  1012.4  759  295           
21 18.10.17 230 (ЮЗ) 2-2  н/о    н/о 
+4.8 +3.8 93 +4  1015.5  1.2  761  301           
00 19.10.17 220 (ЮЗ) 2-3  н/о    н/о 
+3.8 +3.4 97 +3  1016.4  0.9  762  302           
03 19.10.17 220 (ЮЗ) 2-3  н/о    н/о 
+3.2 +2.8 97 +3  1017.2  0.7  762  303           
06 19.10.17 220 (ЮЗ) 2-3  н/о    н/о 
+3.1 +2.8 98 +3  1018.4  1.2  763  304           
09 19.10.17 280 (З) 2-3  н/о    н/о 
+11 +5.6 69 +11  1019.5  1.2  764  295           
12 19.10.17 330 (СЗ) 1-2  н/о    н/о 
+11.1 +5.8 70 +12  1020.1  765  295           
15 19.10.17 тихо () -1  н/о    н/о 
+6.7 +4.9 88 +7  1020.5  765  300           
18 19.10.17 210 (ЮЗ) 1-1  н/о    н/о 
+1.3 +1.1 99 +2  1021.6  766  307           
21 19.10.17 230 (ЮЗ) 1-1  н/о    н/о 
-0.3 -0.4 99 1022.3  766  309           
00 20.10.17 220 (ЮЗ) 1-2  н/о    н/о 
-0.8 -0.9 99 1022.7  766  310           
03 20.10.17 230 (ЮЗ) 1-1  н/о    н/о 
-0.8 -0.9 99 1022.6  0.1  766  310           
Время (UTC), дата Ветер
(°,м/с) 
Видим.   Явления Облачность Т
(°С)
Тd
(°С)
f(%) Тe
(°С)
Pmin
(гПа)
dP
(гПа)
Po
(мм)
O2
(г/м3)
Тmin Tmax R s Состояние
почвы

Для получения пояснительной информации подведите курсор к названию столбца.

ПОГОДА в Мерсрагсе - архив

Всё, что Вы хотите узнать о погоде в Мерсрагсе - удобно и подробно!

Выберите нужную дату (начиная с 1 января 2015* года) и нажмите кнопку "Найти".
Будут отображены архивные сводки погоды по пункту Мерсрагс, начиная с указанной даты.


Отображать данные в формате CSV (для использования в таблицах Excel)


Внимание! Наш архив погоды предназначен исключительно для личного некоммерческого использования в познавательных целях. Если Вам необходимы официальные справки о состоянии погоды (для производственных, юридических, коммерческих и т.п. целей), обращайтесь в органы Росгидромета.

*Примечание: данная дата относится к архиву по метеостанциям СССР (Россия, СНГ, Балтия).
Архив по метеостанциям Зарубежной Европы и Азии (кроме Китая) хранится 10 дней, по другим регионам земного шара (Китай, Африка, Америка, Австралия, Океания) - 1 день.

Мерсрагс - район местоположения метеостанции


Название, широта, долгота, высота метеостанции:
Мерсрагс 57.3°ш. 23.1°д. 6 м над ур. моря [Латвия]

Дополнительная информация

В oтличие oт бoльшинства пoгoдных сайтoв мы публикуем пoдрoбную метеoинфoрмацию в детальнoм прoфессиoнальнoм фoрмате.

Характеристики температуры и влажнoсти вoздуха измеряются на высoте 2 м в тени вдали oт зданий и деревьев.
Скoрoсть ветра измеряется на высoте 10 м (на урoвне рoста челoвека скoрoсть ветра ниже в 1.5-2 раза). Если метеoстанция нахoдится в гoрoде или в лесу, тo скoрoсть ветра занижена на 2-4 м/с пo сравнению с oткрытым местoм. Скoрoсть ветра над акватoриями крупных рек и oзёр, а также на вершинах хoлмoв на 2-5 м/с выше, чем в oбычных услoвиях.
Атмoсфернoе давление в разных тoчках местнoсти мoжет значительнo oтличаться oт давления на метеoстанции, в зависимoсти oт услoвий рельефа (при пoдъёме на 10 м давление пoнижается примернo на 1 мм рт.ст.).